Simultaneous Nadir Overpasses (SNOs) Predictions

Prediction of SNOs between GOES-15 and METOP-C Satellite Orbit:

Table of predicted SNOs for the next 14.0 days since TLE Epoch: 9/25/2021
Index Date Time (GOES-15) GOES-15 Lat,Lon METOP-C Lat,Lon Distance(km) Time Diff (sec)
1 09/25/2021 17:54:11 -0.32,-127.71 -0.76,-125.63 236.10 80
2 09/27/2021 06:10:31 0.34,-127.68 -0.25,-130.23 290.92 80
3 09/28/2021 05:52:31 0.32,-127.65 0.85,-125.24 274.43 80
4 09/29/2021 18:08:40 -0.34,-127.55 0.18,-129.79 255.76 80
5 09/30/2021 17:50:39 -0.32,-127.51 -0.92,-124.79 309.29 80
6 10/02/2021 06:07:00 0.34,-127.47 -0.08,-129.39 218.57 80
7 10/03/2021 05:48:59 0.33,-127.43 1.03,-124.40 346.14 80
8 10/04/2021 18:05:09 -0.34,-127.32 0.00,-128.95 184.90 80
9 10/05/2021 17:47:08 -0.33,-127.28 -1.10,-123.95 379.62 80
10 10/07/2021 06:03:27 0.35,-127.24 0.05,-128.54 148.75 80
11 10/08/2021 05:45:27 0.34,-127.19 1.16,-123.55 415.35 80
